Tracking 20628 objects as of 6-Apr-2020
HD Live streaming from Space Station
objects crossing your sky now

SEA LAUNCH DEMO

Track SEA LAUNCH DEMO now!
SEA LAUNCH DEMO is classified as:


NORAD ID: 25661
Int'l Code: 1999-014A
Perigee: 653.8 km
Apogee: 36,062.3 km
Inclination: 1.2 °
Period: 645.0 minutes
Semi major axis: 24729 km
RCS: 5.9526 m2 (large)
Launch date: March 28, 1999
Source: Sea Launch (SEAL)
Launch site: SEA LAUNCH (SEAL)
aabbcc
Your satellite tracking list
Your tracking list is empty




NASA's NSSDC Master Catalog

Two Line Element Set (TLE):
1 25661U 99014A   20096.97926940 -.00000217  00000-0 -79281-3 0  9998
2 25661   1.1806  81.4306 7159308  97.8788 342.4160  2.23250319171545
Source of the keplerian elements: AFSPC